Regional Weather Roundup
Issued by NWS

Home | Current Version | Previous Version | Text Only | Print | Product List | Glossary Off
Versions: 1 2 3 4 5 6 7 8 9 10 11 12 13 14 15 16 17 18 19 20 21 22 23 24 25 26 27 28 29 30 31 32 33 34 35 36 37 38 39 40 41 42 43 44 45 46 47 48 49 50

000
ASUS43 KMKX 010200
RWRWI

WISCONSIN REGIONAL WEATHER ROUNDUP
NATIONAL WEATHER SERVICE MILWAUKEE/SULLIVAN WI
900 PM CDT SAT APR 30 2016

NOTE: "FAIR" INDICATES FEW OR NO CLOUDS BELOW 12,000 FEET WITH NO
SIGNIFICANT WEATHER AND/OR OBSTRUCTIONS TO VISIBILITY.

WIZ001-002-006>008-014>016-023>028-010300-
NORTHWEST WISCONSIN

CITY           SKY/WX    TMP DP  RH WIND       PRES   REMARKS
SUPERIOR ARPT  CLOUDY    40  31  70 NE14G20   30.24S WCI  32
ASHLAND        CLOUDY    38  32  79 NE10      30.23S WCI  31
HAYWARD        PTCLDY    41  30  65 NE16      30.17S
SIREN          CLOUDY    45  26  46 NE9G20    30.16R
CUMBERLAND     CLOUDY    45  28  53 N15G25    30.11R
RICE LAKE      CLOUDY    47  31  55 N20       30.11R
CHETEK         CLOUDY    48  34  57 N7G22     30.09R
LADYSMITH      CLOUDY    47  34  60 N13G18    30.12R
EAU CLAIRE     NOT AVBL
MENOMONIE      CLOUDY    53  35  50 NE7       30.07R
NEW RICHMOND   CLOUDY    49  30  49 NE14G21   30.09R
OSCEOLA        CLOUDY    49  29  47 N18       30.13R
$$

WIZ003>005-009-010-017-018-010300-
NORTH CENTRAL WISCONSIN

CITY           SKY/WX    TMP DP  RH WIND       PRES   REMARKS
MANITOWISH WTR MOCLDY    43  31  62 NE12G18   30.16R
ARBOR VITAE    PTCLDY    45  31  58 NE14G21   30.15R
WOODRUFF       PTCLDY    45  31  58 NE14G21   30.15R
RHINELANDER    CLOUDY    49  31  49 N9        30.11F
EAGLE RIVER    CLOUDY    43  30  59 NE13G18   30.15R
LAND O LAKES   PTCLDY    42  31  65 NE7       30.19R
PHILLIPS       CLOUDY    46  33  61 NE15      30.11S
TOMAHAWK       CLOUDY    50  32  49 NE6       30.11S
MEDFORD        CLOUDY    48  36  61 E3        30.07S
MERRILL        CLOUDY    52  34  51 E9        30.09S
$$

WIZ029-030-035-036-043>047-010300-
CENTRAL WISCONSIN

CITY           SKY/WX    TMP DP  RH WIND       PRES   REMARKS
WAUSAU         CLOUDY    52  33  48 E6        30.06S
MOSINEE        NOT AVBL
MARSHFIELD     CLOUDY    50  32  50 E9        30.05S
STEVENS POINT  LGT RAIN  46  33  59 E16       30.07F
WAUPACA        DRIZZLE   48  35  60 NE8       30.05F
WAUTOMA        LGT RAIN  44  39  82 NE7       30.06S
WISC RAPIDS    LGT RAIN  47  32  56 E14G24    30.07S
CAMP DOUGLAS   NOT AVBL
$$

WIZ011>013-019>022-031-037>040-048>050-010300-
NORTHEAST WISCONSIN

CITY           SKY/WX    TMP DP  RH WIND       PRES   REMARKS
ANTIGO         CLOUDY    48  34  57 NE13      30.09F
SHAWANO        CLOUDY    53  34  48 NE12G17   30.09S
OCONTO         CLOUDY    50  33  52 NE10      30.09F
STURGEON BAY   CLOUDY    46  32  57 NE16      30.11F
GREEN BAY      LGT RAIN  49  36  61 NE21G31   30.08F
MANITOWOC      NOT AVBL
APPLETON       CLOUDY    48  32  53 NE7       30.06S
CLINTONVILLE   CLOUDY    50  28  43 E7        30.08S
OSHKOSH        LGT RAIN  47  36  65 NE10      30.02F
$$

WIZ032>034-041-042-053>061-010300-
SOUTHWEST WISCONSIN

CITY           SKY/WX    TMP DP  RH WIND       PRES   REMARKS
LA CROSSE      LGT RAIN  45  39  79 CALM      30.04R
SPARTA         DRIZZLE   44  38  79 E9        30.05S
VIROQUA        CLOUDY    43  40  90 NE13      30.02R
BOSCOBEL       LGT RAIN  45  45 100 E7        30.01R FOG
PRAIRIE DU CHI CLOUDY    44  40  87 NE8       29.99F FOG
PLATTEVILLE    CLOUDY    44  42  91 NE16G22   29.95F
$$

WIZ056-057-062-063-064-067-068-010300-
SOUTH CENTRAL WISCONSIN

CITY           SKY/WX    TMP DP  RH WIND       PRES   REMARKS
REEDSBURG      DRIZZLE   43  42  95 NE10      30.01F
BARABOO/DELLS  LGT RAIN  43  41  91 NE10      30.02S
LONE ROCK      NOT AVBL
MINERAL POINT  CLOUDY    45  41  87 NE14G23   29.97S
MADISON        CLOUDY    44  39  82 NE16      30.00R
MIDDLETON      CLOUDY    45  41  84 NE16G25   30.00R
WATERTOWN      RAIN      41  41 100 N8G30     30.01F
MONROE         CLOUDY    43  41  93 NE18G25   29.95S
JANESVILLE     CLOUDY    45  43  93 NE13G20   29.96R
$$

WIZ051-052-058>065-066-070>072-010300-
SOUTHEAST WISCONSIN

CITY           SKY/WX    TMP DP  RH WIND       PRES   REMARKS
MILWAUKEE      RAIN      42  40  92 N15       30.01F FOG
WAUKESHA       RAIN      39  39 100 NE9       30.02S FOG     WCI  33
MILWAUKEE/TIMM RAIN      43  39  87 NE8       30.05R
RACINE         LGT RAIN  43  40  89 N15       30.01S FOG
BURLINGTON     DRIZZLE   42  41  97 NE12      29.97F
KENOSHA        CLOUDY    44  42  93 NE16      29.98R
FOND DU LAC    LGT RAIN  44  38  79 NE12      30.02F
SHEBOYGAN      LGT RAIN  43  37  79 NE7       30.06S
WEST BEND      RAIN      41  37  87 NE7       30.05S
JUNEAU         LGT RAIN  42  40  93 NE9       30.02F
$$

LSZ147-162-010300-
LAKE SUPERIOR

STATION/POSITION TIME  TEMP    WIND        PRES    WAVE
                       AIR SEA DIR/SP/G            HT/PER
                 (UTC) (F)     (DEG/KT/KT) (MB)    (FT/S)
W MID LAKE BUOY  0050   39 37   40/  6/  8 1025.1R   2/ 4
DEVILS ISLAND    0100   41      60/ 15/ 17 1024.9R
PORT WING        0100   40      40/ 12/ 14 1024.0R
SAXON HARBOR     0100   41      50/ 15/ 18 1022.7R
$$

LMZ867-665-643>646-010300-
LAKE MICHIGAN

STATION/POSITION TIME  TEMP    WIND        PRES    WAVE
                       AIR SEA DIR/SP/G            HT/PER
                 (UTC) (F)     (DEG/KT/KT) (MB)    (FT/S)
CHAMBERS ISLAND  0100   45     360/ 16/ 19 1020.3R
N MID LAKE BUOY  0050   42 39   10/ 14/ 16 1019.5R   1/ 3
NORTHPORT PIER   0100   46      10/ 17/ 21 1020.0R
ALGOMA LAKESHORE 0100           30/ 14/ 20   N/A
KEWAUNEE LAKESHO 0100   45      20/ 12/ 17 1017.9R
SHEBOYGAN LAKESH 0100   42      30/ 14/ 16 1018.5R
PORT WASHINGTON  0100   42      20/  6/ 12 1018.3S
S MID LAKE BUOY  0050   42 40   30/ 10/ 12 1015.8R   1/ 3
KENOSHA   LAKESH 0100   43      30/ 21/ 23 1014.6F
$$

TC  - TEMPERATURE IN CELSIUS
VSB - VISIBILITY IN STATUTE MILES
WCI - WIND CHILL INDEX
HX  - HEAT INDEX




USA.gov is the U.S. government's official web portal to all federal, state and local government web resources and services.